TimeEST,TemperatureF,Dew PointF,Humidity,Sea Level PressureIn,VisibilityMPH,Wind Direction,Wind SpeedMPH,Gust SpeedMPH,PrecipitationIn,Events,Conditions,WindDirDegrees,DateUTC
12:53 AM,27.0,21.0,78,30.48,10.0,Calm,Calm,-,N/A,,Clear,0,2011-12-13 05:53:00
1:53 AM,28.0,21.0,75,30.48,10.0,Calm,Calm,-,N/A,,Clear,0,2011-12-13 06:53:00
2:53 AM,25.0,21.0,85,30.49,10.0,Calm,Calm,-,N/A,,Clear,0,2011-12-13 07:53:00
3:53 AM,27.0,21.0,78,30.48,10.0,Calm,Calm,-,N/A,,Clear,0,2011-12-13 08:53:00
4:53 AM,27.0,19.9,75,30.48,10.0,Calm,Calm,-,N/A,,Clear,0,2011-12-13 09:53:00
6:53 AM,24.1,19.9,84,30.51,8.0,Calm,Calm,-,N/A,,Clear,0,2011-12-13 11:53:00
7:53 AM,24.1,19.9,84,30.51,9.0,Calm,Calm,-,N/A,,Clear,0,2011-12-13 12:53:00
8:53 AM,30.0,24.1,79,30.51,10.0,Calm,Calm,-,N/A,,Clear,0,2011-12-13 13:53:00
9:53 AM,33.1,24.1,70,30.52,10.0,Calm,Calm,-,N/A,,Scattered Clouds,0,2011-12-13 14:53:00
10:53 AM,39.0,26.1,60,30.53,10.0,Calm,Calm,-,N/A,,Mostly Cloudy,0,2011-12-13 15:53:00
11:53 AM,43.0,23.0,45,30.50,10.0,Calm,Calm,-,N/A,,Scattered Clouds,0,2011-12-13 16:53:00
12:53 PM,45.0,24.1,44,30.47,10.0,Calm,Calm,-,N/A,,Mostly Cloudy,0,2011-12-13 17:53:00
1:53 PM,46.9,25.0,42,30.46,10.0,Variable,4.6,-,N/A,,Clear,0,2011-12-13 18:53:00
2:53 PM,48.0,25.0,41,30.45,10.0,Calm,Calm,-,N/A,,Partly Cloudy,0,2011-12-13 19:53:00
3:53 PM,46.9,25.0,42,30.45,10.0,SW,4.6,-,N/A,,Mostly Cloudy,230,2011-12-13 20:53:00
4:53 PM,46.0,25.0,44,30.44,10.0,Calm,Calm,-,N/A,,Overcast,0,2011-12-13 21:53:00
5:53 PM,45.0,25.0,46,30.46,10.0,Calm,Calm,-,N/A,,Overcast,0,2011-12-13 22:53:00
6:53 PM,43.0,27.0,53,30.45,10.0,Calm,Calm,-,N/A,,Overcast,0,2011-12-13 23:53:00
7:53 PM,41.0,27.0,57,30.46,10.0,Calm,Calm,-,N/A,,Overcast,0,2011-12-14 00:53:00
8:53 PM,42.1,27.0,55,30.45,10.0,Calm,Calm,-,N/A,,Overcast,0,2011-12-14 01:53:00
9:53 PM,42.1,28.9,60,30.43,10.0,Calm,Calm,-,N/A,,Overcast,0,2011-12-14 02:53:00
10:53 PM,39.9,28.9,65,30.43,10.0,Calm,Calm,-,N/A,,Overcast,0,2011-12-14 03:53:00
11:53 PM,39.9,30.9,70,30.42,10.0,Calm,Calm,-,N/A,,Overcast,0,2011-12-14 04:53:00